Regional Weather Roundup
Issued by NWS

Home | Current Version | Previous Version | Graphics & Text | Print | Product List | Glossary On
Versions: 1 2 3 4 5 6 7 8 9 10 11 12 13 14 15 16 17 18 19 20 21 22 23 24 25 26 27 28 29 30 31 32 33 34 35 36 37 38 39 40 41 42 43 44 45 46 47 48 49 50
000
ASUS43 KMKX 231559
RWRWI

WISCONSIN REGIONAL WEATHER ROUNDUP
NATIONAL WEATHER SERVICE MILWAUKEE/SULLIVAN WI
1000 AM CST MON JAN 23 2017

NOTE: "FAIR" INDICATES FEW OR NO CLOUDS BELOW 12,000 FEET WITH NO
SIGNIFICANT WEATHER AND/OR OBSTRUCTIONS TO VISIBILITY.

WIZ001-002-006>008-014>016-023>028-231700-
NORTHWEST WISCONSIN

CITY           SKY/WX    TMP DP  RH WIND       PRES   REMARKS
SUPERIOR ARPT  CLOUDY    35  35  98 CALM      29.79R
ASHLAND        CLOUDY    35  35 100 W5        29.79R FOG     WCI  31
HAYWARD        FOG       35  34  96 VRB3      29.78R VSB 1
SIREN          MIX PCPN  33  33 100 CALM      29.80S
CUMBERLAND     CLOUDY    32  32 100 SW3       29.80R FOG
RICE LAKE      FOG       34  34 100 SW5       29.82R VSB 1   WCI  30
CHETEK         CLOUDY    34  34 100 CALM      29.80S FOG
LADYSMITH      FOG       35  35  99 SW3       29.80R VSB 1/2
EAU CLAIRE     FOG       33  33 100 W7        29.81S VSB 1   WCI  27
MENOMONIE        N/A    N/A N/A N/A MISG        N/A
NEW RICHMOND   LGT SNOW  33  33 100 CALM      29.81S
OSCEOLA        LGT SNOW  33  33 100 CALM      29.83F
$$

WIZ003>005-009-010-017-018-231700-
NORTH CENTRAL WISCONSIN

CITY           SKY/WX    TMP DP  RH WIND       PRES   REMARKS
MANITOWISH WTR FOG       32  32 100 S5        29.76R VSB<1/4 WCI  27
ARBOR VITAE    CLOUDY    34  33  97 CALM      29.76S
WOODRUFF       CLOUDY    34  33  97 CALM      29.76S
RHINELANDER    CLOUDY    34  33  96 CALM      29.77R
EAGLE RIVER    FOG       32  32 100 CALM      29.75S VSB 1/2
LAND O LAKES   CLOUDY    33  33 100 CALM      29.77R FOG
PHILLIPS       FOG       33  33 100 CALM      29.77R VSB 1/2
TOMAHAWK       CLOUDY    33  32  98 CALM      29.78R
MEDFORD        FOG       32  32  99 CALM      29.77S VSB<1/4
MERRILL        CLOUDY    34  34 100 CALM        N/A
$$

WIZ029-030-035-036-043>047-231700-
CENTRAL WISCONSIN

CITY           SKY/WX    TMP DP  RH WIND       PRES   REMARKS
WAUSAU         CLOUDY    33  32  96 W3        29.77S
MOSINEE        CLOUDY    34  34 100 CALM      29.79R
MARSHFIELD     FOG       34  33  96 W6        29.77S VSB 1/4 WCI  29
STEVENS POINT  CLOUDY    33  33 100 CALM      29.79S
WAUPACA        CLOUDY    37  37  97 CALM      29.79R
WAUTOMA        CLOUDY    36  35  96 NW3       29.80S
WISC RAPIDS    FOG       34  34 100 NW3       29.80S VSB 1
CAMP DOUGLAS   NOT AVBL
$$

WIZ011>013-019>022-031-037>040-048>050-231700-
NORTHEAST WISCONSIN

CITY           SKY/WX    TMP DP  RH WIND       PRES   REMARKS
ANTIGO         CLOUDY    33  32  97 NW6       29.76S WCI  27
SHAWANO        CLOUDY    38  35  89 CALM      29.79R
OCONTO         CLOUDY    35  34  95 CALM      29.78R
STURGEON BAY   CLOUDY    35  35 100 N5        29.78R WCI  31
GREEN BAY      CLOUDY    38  36  92 NW6       29.78R WCI  33
MANITOWOC      CLOUDY    37  37 100 MISG      29.78R FOG
APPLETON       CLOUDY    36  36 100 NW7       29.77R WCI  30
CLINTONVILLE   CLOUDY    36  34  93 CALM      29.79R
OSHKOSH        FOG       35  34  96 W8        29.78S VSB 1   WCI  29
$$

WIZ032>034-041-042-053>061-231700-
SOUTHWEST WISCONSIN

CITY           SKY/WX    TMP DP  RH WIND       PRES   REMARKS
LA CROSSE      CLOUDY    38  34  85 CALM      29.83S FOG
SPARTA         CLOUDY    33  33 100 W3        29.83S FOG
VIROQUA        CLOUDY    33  33 100 CALM      29.81S
BOSCOBEL       CLOUDY    38  34  85 VRB3      29.83S
PRAIRIE DU CHI CLOUDY    35  33  92 NW6       29.84R WCI  30
PLATTEVILLE    CLOUDY    36  36 100 NW8       29.81S WCI  30
$$

WIZ056-057-062-063-064-067-068-231700-
SOUTH CENTRAL WISCONSIN

CITY           SKY/WX    TMP DP  RH WIND       PRES   REMARKS
REEDSBURG      CLOUDY    35  35 100 CALM      29.80S FOG
BARABOO/DELLS  CLOUDY    35  35  99 NW3       29.80S FOG
LONE ROCK      CLOUDY    38  35  89 W6        29.82S WCI  33
MINERAL POINT  CLOUDY    37  37 100 NW8       29.80S FOG     WCI  31
MADISON        CLOUDY    37  35  92 NW6       29.79F WCI  32
MIDDLETON      CLOUDY    37  37 100 NW5       29.80S WCI  34
WATERTOWN      CLOUDY    35  35 100 NW6       29.78S FOG     WCI  30
MONROE         CLOUDY    36  36 100 NW7       29.78S WCI  30
JANESVILLE     CLOUDY    39  37  93 NW13      29.78S WCI  32
$$

WIZ051-052-058>065-066-070>072-231700-
SOUTHEAST WISCONSIN

CITY           SKY/WX    TMP DP  RH WIND       PRES   REMARKS
MILWAUKEE      CLOUDY    39  36  89 NW7       29.78R FOG     WCI  34
WAUKESHA       FOG       34  34 100 NW6       29.79R VSB 1   WCI  29
MILWAUKEE/TIMM CLOUDY    37  34  87 NW5       29.79R FOG     WCI  34
RACINE         CLOUDY    39  35  86 NW5       29.79R
KENOSHA        CLOUDY    39  36  89 NW7       29.77R WCI  34
FOND DU LAC    CLOUDY    36  34  92 NW6       29.78S FOG     WCI  31
SHEBOYGAN      CLOUDY    37  36  96 NW6       29.78R FOG     WCI  32
WEST BEND      FOG       36  36 100 NW3       29.78R VSB 3/4
JUNEAU         CLOUDY    34  34 100 NW7       29.79R FOG     WCI  28
$$

LSZ147-162-231700-
LAKE SUPERIOR

STATION/POSITION TIME  TEMP    WIND        PRES    WAVE
                       AIR SEA DIR/SP/G            HT/PER
                 (UTC) (F)     (DEG/KT/KT) (MB)    (FT/S)
DEVILS ISLAND    1500   34     220/  6/  6 1008.7R
PORT WING        1540   36     240/  6/  8 1008.8R
SAXON HARBOR     1540   36     190/  2/  4 1008.1S
$$

LMZ867-665-643>646-231700-
LAKE MICHIGAN

STATION/POSITION TIME  TEMP    WIND        PRES    WAVE
                       AIR SEA DIR/SP/G            HT/PER
                 (UTC) (F)     (DEG/KT/KT) (MB)    (FT/S)
NORTHPORT PIER   1540   33     320/  4/  6 1008.1S
SISTER BAY       1450   35        CALM       N/A
KEWAUNEE LAKESHO 1524   36     340/  3/  7 1007.7
SHEBOYGAN LAKESH 1500   37     330/  6/  7 1008.3R
PORT WASHINGTON  1530   38     320/  5/  7 1009.5R
KENOSHA   LAKESH 1500   39     330/  7/ 10 1008.1
$$

TC  - TEMPERATURE IN CELSIUS
VSB - VISIBILITY IN STATUTE MILES
WCI - WIND CHILL INDEX
HX  - HEAT INDEX




USA.gov is the U.S. government's official web portal to all federal, state and local government web resources and services.